Location: Blanot
(47.1713°N, 4.2340°E)
Time: 21:01:28
(UTC+00:00)

CZ-4B R/B - Pass Details

Date: 14 July 2020
Orbit: 702 x 803 km, 98.9° (Epoch: 14 August)

Event Time Altitude Azimuth Distance (km) Brightness Sun altitude
Rises 02:18:14 0° 11° (N) 3,255 8.0 -13.4°
Reaches altitude 10° 02:20:36 10° 7° (N) 2,309 7.0 -13.2°
Maximum altitude 02:25:34 57° 290° (WNW) 880 3.7 -12.7°
Enters shadow 02:29:11 18° 216° (SW) 1,777 4.7 -12.3°
